Location: Saalfelden+am+Steinernen+Meer
(47.4274°N, 12.8411°E)
Time: 20:43:42
(UTC+01:00)

Envisat - Visible Passes

Search period start: 18 November 2017 00:00
Search period end: 28 November 2017 00:00
Orbit: 764 x 766 km, 98.2° (Epoch: 18 November)

Date Brightness Start Highest point End Pass type
(mag) Time Alt. Az. Time Alt. Az. Time Alt. Az.
18 Nov 5.0 18:46:43 14° NNE 18:46:43 14° NNE 18:47:34 10° N visible
18 Nov 5.8 20:26:56 10° NNW 20:26:56 10° NNW 20:27:00 10° NNW visible
19 Nov 5.1 18:09:40 10° NNE 18:09:40 10° NNE 18:09:48 10° NNE visible
19 Nov 5.4 19:49:53 13° NNW 19:49:53 13° NNW 19:50:27 10° NNW visible
20 Nov 5.2 19:12:49 14° N 19:12:49 14° N 19:13:32 10° N visible
21 Nov 5.1 18:35:46 12° NNE 18:35:46 12° NNE 18:36:14 10° N visible
21 Nov 5.8 20:15:59 10° NNW 20:15:59 10° NNW 20:15:59 10° NNW visible
22 Nov 5.4 19:38:55 12° N 19:38:55 12° N 19:39:19 10° N visible
23 Nov 5.2 19:01:51 12° N 19:01:51 12° N 19:02:17 10° N visible
24 Nov 5.2 18:24:47 10° NNE 18:24:47 10° NNE 18:24:50 10° NNE visible
25 Nov 5.5 19:27:55 11° N 19:27:55 11° N 19:28:08 10° N visible
26 Nov 5.3 18:50:51 11° N 18:50:51 11° N 18:51:01 10° N visible
